Simultaneous Nadir Overpasses (SNOs) Predictions

Prediction of SNOs between METOP-B and TERRA Satellite Orbit:

Table of predicted SNOs for the next 14.0 days since TLE Epoch: 3/26/2016
Index Date (METOP-B) Time (METOP-B) Lat,Lon (METOP-B) SZA (METOP-B ) Date (TERRA) Time (TERRA) Lat,Lon (TERRA) SZA (TERRA ) Distance(km) Time Diff (sec)
1 03/28/2016 04:18:15 -81.32, -17.01 99.15 03/28/2016 04:18:39 -81.32, -16.96 99.13 0.92 24
2 03/28/2016 05:08:54 81.32, 150.95 80.92 03/28/2016 05:08:05 81.32, 150.76 80.87 3.24 49
3 03/30/2016 23:52:37 -81.32, 49.52 100.20 03/30/2016 23:52:53 -81.32, 49.58 100.18 1.06 16
4 03/31/2016 00:43:16 81.32,-142.57 79.86 03/31/2016 00:42:19 81.32,-142.75 79.82 2.99 57
5 04/02/2016 19:27:00 -81.32, 116.02 101.24 04/02/2016 19:27:08 -81.32, 115.96 101.25 1.06 8
6 04/02/2016 20:17:40 81.32, -76.50 78.77 04/02/2016 20:16:34 81.32, -76.40 78.75 1.76 66
7 04/05/2016 14:10:43 81.31, 14.64 77.68 04/05/2016 14:11:56 81.30, 14.50 77.69 2.61 73
8 04/05/2016 15:01:23 -81.32,-177.51 102.27 04/05/2016 15:01:22 -81.33,-177.44 102.26 1.42 1
9 04/05/2016 15:51:47 81.34, -3.74 78.49 04/05/2016 15:50:34 81.57, -4.31 78.52 27.09 73
10 04/08/2016 09:45:06 81.31, 81.06 76.65 04/08/2016 09:46:10 81.30, 80.93 76.66 2.33 64




NCC Satellite Simultaneous Nadir Overpasses (SNOs) Prediction Service
